"Timestamp","TZ","WindDir_Mean (deg)","WindSpd_Mean (km/h)","WindSpd_Min (km/h)","WindSpd_Max (km/h)","Temp_Mean (deg)","RH_Mean (%)","MSLP_Mean (hPa)","Rain_Acc (mm)","Rain_Intensity (mm/h)","Hail_Acc (hits/cm2)","Hail_Intensity (hits/cm2hr)","Solar_Mean (W/m2)"
2018/01/24 00:00:00.002,n,54,3.6,2.88,3.96,24.3,75.3,1013.62,0,0,0,0,0.02697
2018/01/24 00:01:00.000,n,38,5.4,4.68,6.12,24.3,75.3,1013.62,0,0,0,0,0.030441
2018/01/24 00:02:00.000,n,34,6.12,5.4,7.2,24.3,75.3,1013.62,0,0,0,0,0.029564
2018/01/24 00:03:00.000,n,47,4.32,2.88,5.76,24.3,75.3,1013.62,0,0,0,0,0.028687
2018/01/24 00:04:00.006,n,16,4.68,1.8,7.2,24.3,75.2,1013.52,0,0,0,0,0.030441
2018/01/24 00:05:00.003,n,48,9.72,9,10.08,24.3,75.2,1013.52,0,0,0,0,0.027847
2018/01/24 00:06:00.000,n,63,10.08,9,10.8,24.3,75.2,1013.52,0,0,0,0,0.024338
2018/01/24 00:07:00.000,n,77,5.76,5.04,6.48,24.3,75.3,1013.52,0,0,0,0,0.026093
2018/01/24 00:08:00.010,n,43,7.2,6.48,7.92,24.3,75.4,1013.42,0,0,0,0,0.02697
2018/01/24 00:09:00.007,n,59,6.84,6.12,8.28,24.3,75.4,1013.42,0,0,0,0,0.027847
2018/01/24 00:10:00.000,n,71,5.04,4.32,5.76,24.3,75.4,1013.32,0,0,0,0,0.027847
2018/01/24 00:11:00.001,n,70,7.2,6.48,8.28,24.2,75.5,1013.32,0,0,0,0,0.029564
2018/01/24 00:12:00.000,n,45,6.12,5.76,6.48,24.2,75.6,1013.32,0,0,0,0,0.024338
2018/01/24 00:13:00.000,n,30,5.4,3.24,7.92,24.2,75.6,1013.32,0,0,0,0,0.027847
2018/01/24 00:14:00.000,n,57,5.76,5.04,6.12,24.2,75.6,1013.32,0,0,0,0,0.025215
2018/01/24 00:15:00.006,n,51,6.12,5.4,6.84,24.2,75.7,1013.32,0,0,0,0,0.026093
2018/01/24 00:16:00.004,n,62,2.52,1.08,3.96,24.2,75.7,1013.32,0,0,0,0,0.025215
2018/01/24 00:17:00.001,n,68,6.48,5.4,8.28,24.2,75.7,1013.32,0,0,0,0,0.028687
2018/01/24 00:18:00.015,n,62,6.12,5.76,6.48,24.2,75.8,1013.32,0,0,0,0,0.02697
2018/01/24 00:19:00.000,n,72,4.68,4.32,5.76,24.2,75.7,1013.22,0,0,0,0,0.027847
2018/01/24 00:20:00.000,n,62,6.12,5.4,7.2,24.2,75.8,1013.22,0,0,0,0,0.025215
2018/01/24 00:21:00.005,n,80,4.68,4.32,5.04,24.2,75.9,1013.22,0,0,0,0,0.026093
2018/01/24 00:22:00.001,n,73,6.84,6.48,7.2,24.2,75.9,1013.22,0,0,0,0,0.02346
2018/01/24 00:23:00.000,n,66,9.36,9,9.72,24.2,75.9,1013.22,0,0,0,0,0.027847
2018/01/24 00:24:00.000,n,68,7.56,7.2,8.28,24.2,75.9,1013.22,0,0,0,0,0.022621
2018/01/24 00:25:00.010,n,57,7.92,6.84,8.64,24.2,75.9,1013.22,0,0,0,0,0.025215
2018/01/24 00:26:00.007,n,71,4.68,3.24,5.76,24.2,75.9,1013.22,0,0,0,0,0.025215
2018/01/24 00:27:00.004,n,60,3.24,2.88,3.6,24.2,76,1013.22,0,0,0,0,0.02346
2018/01/24 00:28:00.001,n,68,8.64,8.28,9,24.2,76,1013.22,0,0,0,0,0.02346
2018/01/24 00:29:00.000,n,52,6.84,6.48,7.56,24.2,75.9,1013.22,0,0,0,0,0.025215
2018/01/24 00:30:00.000,n,38,6.12,5.76,6.84,24.2,76,1013.22,0,0,0,0,0.025215
2018/01/24 00:31:00.000,n,44,6.84,5.76,7.92,24.2,75.9,1013.22,0,0,0,0,0.02346
2018/01/24 00:32:00.007,n,49,5.04,2.88,7.2,24.2,76,1013.22,0,0,0,0,0.021744
2018/01/24 00:33:00.004,n,72,7.56,6.84,8.28,24.2,76,1013.22,0,0,0,0,0.025215
2018/01/24 00:34:00.001,n,55,4.32,3.6,5.04,24.2,76,1013.22,0,0,0,0,0.026093
2018/01/24 00:35:00.014,n,55,5.4,5.04,6.48,24.2,76,1013.22,0,0,0,0,0.022621
2018/01/24 00:36:00.011,n,78,5.76,5.04,6.12,24.2,75.9,1013.22,0,0,0,0,0.02346
2018/01/24 00:37:00.000,n,57,5.76,4.68,7.2,24.2,76,1013.22,0,0,0,0,0.021744
2018/01/24 00:38:00.000,n,62,7.92,7.2,8.28,24.1,76,1013.12,0,0,0,0,0.026093
2018/01/24 00:39:00.002,n,90,5.04,3.96,5.76,24.1,75.9,1013.12,0,0,0,0,0.02346
2018/01/24 00:40:00.000,n,65,5.4,5.04,6.12,24.1,76,1013.12,0,0,0,0,0.028763
2018/01/24 00:41:00.000,n,69,7.92,7.2,8.28,24.1,76,1013.12,0,0,0,0,0.029602
2018/01/24 00:42:00.008,n,80,6.84,6.12,7.92,24.1,76,1013.12,0,0,0,0,0.031357
2018/01/24 00:43:00.005,n,71,6.12,5.76,6.48,24.1,76,1013.12,0,0,0,0,0.032196
2018/01/24 00:44:00.002,n,63,5.76,5.04,6.12,24.1,76.1,1013.12,0,0,0,0,0.033073
2018/01/24 00:45:00.016,n,71,3.96,3.24,4.68,24.1,76,1013.12,0,0,0,0,0.028763
2018/01/24 00:46:00.000,n,104,5.76,5.04,6.12,24.1,76,1013.12,0,0,0,0,0.029602
2018/01/24 00:47:00.000,n,71,6.48,5.76,7.56,24.1,76,1013.22,0,0,0,0,0.026131
2018/01/24 00:48:00.000,n,77,5.04,4.68,5.4,24.1,76,1013.22,0,0,0,0,0.031357
2018/01/24 00:49:00.005,n,76,5.76,5.4,6.12,24.1,76,1013.12,0,0,0,0,0.028763
2018/01/24 00:50:00.002,n,67,4.68,3.6,5.04,24.2,76,1013.12,0,0,0,0,0.030479
2018/01/24 00:51:00.000,n,57,7.2,6.84,7.92,24.2,76,1013.12,0,0,0,0,0.031357
2018/01/24 00:52:00.012,n,64,6.48,5.76,7.2,24.2,75.9,1013.12,0,0,0,0,0.030479
2018/01/24 00:53:00.010,n,83,4.68,4.32,5.04,24.2,75.8,1013.12,0,0,0,0,0.033951
2018/01/24 00:54:00.006,n,79,5.04,4.32,6.12,24.2,75.6,1013.12,0,0,0,0,0.029602
2018/01/24 00:55:00.000,n,70,4.68,3.96,5.76,24.2,75.5,1013.12,0,0,0,0,0.024376
2018/01/24 00:56:00.000,n,76,6.48,5.4,6.84,24.2,75.4,1013.12,0,0,0,0,0.024376
2018/01/24 00:57:00.000,n,61,6.84,6.12,7.2,24.2,75.3,1013.12,0,0,0,0,0.025253
2018/01/24 00:58:00.000,n,94,6.84,6.48,6.84,24.2,75,1013.12,0,0,0,0,0.02697
2018/01/24 00:59:00.006,n,85,5.04,4.32,5.76,24.3,75,1013.12,0,0,0,0,0.031357
2018/01/24 01:00:00.004,n,79,6.48,5.76,6.84,24.3,74.9,1013.12,0,0,0,0,0.023537
2018/01/24 01:01:00.000,n,81,4.68,3.96,5.76,24.3,74.9,1013.12,0,0,0,0,0.02697
2018/01/24 01:02:00.014,n,63,5.04,4.68,5.4,24.3,74.9,1013.12,0,0,0,0,0.027847
2018/01/24 01:03:00.011,n,121,3.96,3.6,4.68,24.3,74.9,1013.02,0,0,0,0,0.021744
2018/01/24 01:04:00.000,n,116,4.32,3.6,5.04,24.3,75,1013.02,0,0,0,0,0.024376
2018/01/24 01:05:00.000,n,90,4.32,3.24,5.4,24.3,75.1,1013.02,0,0,0,0,0.025253
2018/01/24 01:06:00.002,n,90,3.6,3.6,3.6,24.3,75.1,1013.02,0,0,0,0,0.023537
2018/01/24 01:07:00.000,n,111,3.24,2.52,3.6,24.3,75.1,1012.92,0,0,0,0,0.026131
2018/01/24 01:08:00.000,n,127,5.04,4.32,5.76,24.3,75.2,1012.92,0,0,0,0,0.02697
2018/01/24 01:09:00.009,n,143,3.24,2.16,3.96,24.3,75.1,1012.92,0,0,0,0,0.02697
2018/01/24 01:10:00.005,n,121,7.56,7.2,7.56,24.3,75,1012.92,0,0,0,0,0.028763
2018/01/24 01:11:00.002,n,70,3.96,3.24,4.32,24.3,75.1,1012.92,0,0,0,0,0.026131
2018/01/24 01:12:00.000,n,96,6.48,6.12,7.2,24.3,75.1,1012.82,0,0,0,0,0.025253
2018/01/24 01:13:00.000,n,71,3.96,3.24,4.32,24.3,75.1,1012.82,0,0,0,0,0.029602
2018/01/24 01:14:00.000,n,79,5.04,4.32,5.76,24.3,75.1,1012.82,0,0,0,0,0.031357
2018/01/24 01:15:00.000,n,61,6.84,5.4,8.28,24.3,75,1012.82,0,0,0,0,0.022621
2018/01/24 01:16:00.005,n,81,5.76,5.4,6.48,24.3,74.9,1012.72,0,0,0,0,0.027847
2018/01/24 01:17:00.003,n,95,3.6,3.24,3.96,24.3,74.8,1012.72,0,0,0,0,0.02697
2018/01/24 01:18:00.000,n,71,5.4,5.04,5.4,24.3,74.8,1012.72,0,0,0,0,0.023537
2018/01/24 01:19:00.000,n,56,5.4,5.04,5.76,24.3,74.8,1012.72,0,0,0,0,0.027847
2018/01/24 01:20:00.010,n,74,5.04,4.68,5.4,24.3,74.9,1012.72,0,0,0,0,0.024376
2018/01/24 01:21:00.007,n,53,5.76,5.04,6.48,24.3,74.8,1012.72,0,0,0,0,0.025253
2018/01/24 01:22:00.000,n,90,3.96,3.6,5.04,24.3,74.8,1012.72,0,0,0,0,0.026131
2018/01/24 01:23:00.000,n,67,3.6,2.88,3.96,24.3,74.7,1012.72,0,0,0,0,0.026131
2018/01/24 01:24:00.000,n,73,3.24,2.88,3.6,24.3,74.7,1012.72,0,0,0,0,0.027847
2018/01/24 01:25:00.000,n,111,5.76,5.04,6.48,24.3,74.7,1012.62,0,0,0,0,0.020905
2018/01/24 01:26:00.000,n,89,4.32,3.6,4.68,24.3,74.8,1012.62,0,0,0,0,0.025253
2018/01/24 01:27:00.006,n,90,4.68,3.96,5.76,24.3,74.8,1012.62,0,0,0,0,0.029602
2018/01/24 01:28:00.003,n,129,3.6,2.88,3.96,24.3,74.7,1012.62,0,0,0,0,0.022621
2018/01/24 01:29:00.000,n,66,4.32,3.96,4.68,24.3,74.7,1012.62,0,0,0,0,0.02697
2018/01/24 01:30:00.014,n,65,3.96,3.6,4.32,24.3,74.8,1012.62,0,0,0,0,0.02697
2018/01/24 01:31:00.000,n,83,3.6,3.24,3.6,24.3,74.8,1012.62,0,0,0,0,0.022621
2018/01/24 01:32:00.000,n,82,2.52,2.16,2.88,24.3,74.8,1012.62,0,0,0,0,0.033073
2018/01/24 01:33:00.000,n,114,3.96,3.96,3.96,24.3,74.8,1012.52,0,0,0,0,0.027847
2018/01/24 01:34:00.001,n,101,2.52,2.16,3.24,24.3,74.8,1012.52,0,0,0,0,0.023537
2018/01/24 01:35:00.000,n,97,2.88,2.88,3.6,24.3,74.9,1012.52,0,0,0,0,0.030479
2018/01/24 01:36:00.000,n,113,2.52,2.52,2.88,24.3,74.9,1012.52,0,0,0,0,0.023537
2018/01/24 01:37:00.009,n,125,4.68,4.32,5.04,24.3,74.9,1012.52,0,0,0,0,0.024376
2018/01/24 01:38:00.006,n,77,2.88,2.88,3.24,24.3,74.8,1012.52,0,0,0,0,0.026131
2018/01/24 01:39:00.003,n,96,4.32,4.32,4.68,24.3,74.9,1012.52,0,0,0,0,0.024376
2018/01/24 01:40:00.001,n,61,3.6,3.24,3.96,24.3,75,1012.52,0,0,0,0,0.028763
2018/01/24 01:41:00.000,n,138,2.52,1.8,2.52,24.3,74.9,1012.52,0,0,0,0,0.027847
2018/01/24 01:42:00.000,n,95,2.16,2.16,2.16,24.3,74.9,1012.52,0,0,0,0,0.024376
2018/01/24 01:43:00.000,n,91,2.88,2.16,3.6,24.3,74.9,1012.52,0,0,0,0,0.022621
2018/01/24 01:44:00.007,n,105,1.08,0.72,1.8,24.2,74.9,1012.52,0,0,0,0,0.026131
2018/01/24 01:45:00.005,n,112,1.44,1.44,1.8,24.3,74.9,1012.52,0,0,0,0,0.026131
2018/01/24 01:46:00.002,n,120,2.88,2.88,3.24,24.3,74.9,1012.52,0,0,0,0,0.022621
2018/01/24 01:47:00.000,n,103,3.96,3.6,4.68,24.3,75,1012.52,0,0,0,0,0.022621
2018/01/24 01:48:00.012,n,137,3.24,2.16,4.32,24.3,75,1012.52,0,0,0,0,0.029602
2018/01/24 01:49:00.000,n,159,3.96,3.6,4.32,24.3,75.1,1012.52,0,0,0,0,0.024376
2018/01/24 01:50:00.000,n,169,2.52,2.16,2.88,24.3,75.2,1012.52,0,0,0,0,0.021744
2018/01/24 01:51:00.004,n,165,3.24,2.52,3.6,24.3,75.4,1012.52,0,0,0,0,0.025253
2018/01/24 01:52:00.001,n,160,3.96,3.6,4.32,24.3,75.5,1012.52,0,0,0,0,0.026131
2018/01/24 01:53:00.000,n,129,2.16,1.8,2.52,24.3,75.4,1012.62,0,0,0,0,0.020027
2018/01/24 01:54:00.000,n,146,3.96,3.24,4.68,24.3,75.5,1012.62,0,0,0,0,0.022621
2018/01/24 01:55:00.008,n,160,3.6,3.24,3.6,24.3,75.6,1012.62,0,0,0,0,0.021744
2018/01/24 01:56:00.005,n,133,3.24,2.52,3.6,24.3,75.5,1012.62,0,0,0,0,0.02697
2018/01/24 01:57:00.002,n,139,3.24,2.88,3.6,24.3,75.6,1012.62,0,0,0,0,0.023537
2018/01/24 01:58:00.000,n,144,5.04,5.04,5.4,24.2,75.7,1012.62,0,0,0,0,0.026131
2018/01/24 01:59:00.000,n,143,3.96,3.6,4.32,24.2,75.5,1012.62,0,0,0,0,0.023537
2018/01/24 02:00:00.000,n,155,4.68,4.32,4.68,24.2,75.7,1012.62,0,0,0,0,0.023537
2018/01/24 02:01:00.006,n,164,6.12,5.76,6.12,24.2,75.7,1012.62,0,0,0,0,0.024376
2018/01/24 02:02:00.004,n,159,3.96,3.96,4.32,24.2,75.8,1012.62,0,0,0,0,0.029602
2018/01/24 02:03:00.000,n,158,3.96,3.24,5.04,24.2,75.9,1012.62,0,0,0,0,0.020905
2018/01/24 02:04:00.000,n,175,4.68,4.68,4.68,24.2,76,1012.62,0,0,0,0,0.025253
2018/01/24 02:05:00.012,n,162,5.76,5.4,6.12,24.2,76.1,1012.52,0,0,0,0,0.020027
2018/01/24 02:06:00.008,n,172,5.4,5.04,5.4,24.2,76.2,1012.52,0,0,0,0,0.023537
2018/01/24 02:07:00.000,n,148,4.68,4.68,5.04,24.1,76.4,1012.52,0,0,0,0,0.02697
2018/01/24 02:08:00.002,n,157,4.68,4.32,5.04,24.1,76.5,1012.62,0,0,0,0,0.022621
2018/01/24 02:09:00.000,n,159,4.32,3.96,4.32,24.1,76.6,1012.62,0,0,0,0,0.023537
2018/01/24 02:10:00.000,n,161,5.04,5.04,5.4,24.1,76.8,1012.52,0,0,0,0,0.023537
2018/01/24 02:11:00.000,n,163,4.32,4.32,4.68,24.1,76.9,1012.52,0,0,0,0,0.030479
2018/01/24 02:12:00.006,n,168,5.04,4.68,5.4,24,77,1012.52,0,0,0,0,0.023537
2018/01/24 02:13:00.004,n,159,5.4,5.04,5.76,24,77.1,1012.52,0,0,0,0,0.026131
2018/01/24 02:14:00.001,n,163,5.4,5.04,5.76,24,77.3,1012.52,0,0,0,0,0.021744
2018/01/24 02:15:00.014,n,174,3.96,3.6,4.32,24,77.4,1012.52,0,0,0,0,0.026131
2018/01/24 02:16:00.000,n,179,3.6,3.24,3.6,24,77.5,1012.52,0,0,0,0,0.022621
2018/01/24 02:17:00.000,n,150,3.6,3.24,3.96,23.9,77.6,1012.52,0,0,0,0,0.021744
2018/01/24 02:18:00.000,n,101,2.16,1.8,2.52,23.9,77.6,1012.52,0,0,0,0,0.030479
2018/01/24 02:19:00.005,n,189,2.52,2.52,2.88,23.9,77.8,1012.52,0,0,0,0,0.023537
2018/01/24 02:20:00.004,n,243,5.4,4.68,5.76,23.9,77.7,1012.52,0,0,0,0,0.031357
2018/01/24 02:21:00.001,n,252,5.76,5.76,5.76,23.9,77.7,1012.52,0,0,0,0,0.023537
2018/01/24 02:22:00.000,n,246,5.04,4.32,5.4,23.8,77.9,1012.52,0,0,0,0,0.021744
2018/01/24 02:23:00.012,n,240,4.32,3.96,4.32,23.8,77.9,1012.52,0,0,0,0,0.022621
2018/01/24 02:24:00.011,n,247,6.84,4.32,7.92,23.8,78.1,1012.52,0,0,0,0,0.024376
2018/01/24 02:25:00.000,n,234,3.96,3.24,4.32,23.8,77.9,1012.52,0,0,0,0,0.024376
2018/01/24 02:26:00.000,n,240,4.32,3.6,4.32,23.9,78,1012.42,0,0,0,0,0.025253
2018/01/24 02:27:00.001,n,204,0.72,0,1.08,23.8,77.9,1012.42,0,0,0,0,0.026131
2018/01/24 02:28:00.000,n,245,4.32,2.88,4.68,23.8,77.8,1012.42,0,0,0,0,0.021744
2018/01/24 02:29:00.000,n,262,2.16,2.16,2.16,23.8,77.7,1012.42,0,0,0,0,0.020905
2018/01/24 02:30:00.010,n,218,1.8,1.44,2.16,23.8,77.7,1012.42,0,0,0,0,0.029602
2018/01/24 02:31:00.007,n,153,3.6,3.6,3.96,23.8,77.8,1012.32,0,0,0,0,0.020905
2018/01/24 02:32:00.004,n,180,4.32,4.32,4.68,23.8,77.8,1012.32,0,0,0,0,0.020905
2018/01/24 02:33:00.001,n,175,5.04,4.68,5.04,23.8,77.7,1012.32,0,0,0,0,0.029602
2018/01/24 02:34:00.000,n,166,3.6,3.24,3.96,23.8,77.7,1012.32,0,0,0,0,0.021744
2018/01/24 02:35:00.000,n,164,4.32,3.6,4.32,23.9,77.6,1012.32,0,0,0,0,0.021744
2018/01/24 02:36:00.000,n,158,3.24,3.24,3.6,23.9,77.5,1012.32,0,0,0,0,0.020027
2018/01/24 02:37:00.005,n,144,3.96,3.6,4.32,23.9,77.4,1012.32,0,0,0,0,0.020027
2018/01/24 02:38:00.003,n,190,3.6,3.24,3.6,23.9,77.4,1012.32,0,0,0,0,0.027847
2018/01/24 02:39:00.000,n,171,3.24,2.88,3.6,23.9,77.3,1012.32,0,0,0,0,0.028763
2018/01/24 02:40:00.011,n,161,3.6,3.6,3.96,23.9,77.3,1012.32,0,0,0,0,0.027847
2018/01/24 02:41:00.009,n,165,2.52,2.52,2.88,23.9,77.3,1012.32,0,0,0,0,0.020905
2018/01/24 02:42:00.005,n,158,2.16,1.8,2.52,23.9,77.2,1012.32,0,0,0,0,0.029602
2018/01/24 02:43:00.000,n,120,1.08,0.36,1.8,23.9,77.2,1012.32,0,0,0,0,0.020905
2018/01/24 02:44:00.000,n,160,3.24,2.52,3.6,23.9,77.3,1012.22,0,0,0,0,0.020027
2018/01/24 02:45:00.000,n,188,2.52,1.44,2.88,23.9,77.4,1012.22,0,0,0,0,0.020905
2018/01/24 02:46:00.000,n,173,2.52,2.16,2.88,23.9,77.6,1012.22,0,0,0,0,0.021744
2018/01/24 02:47:00.007,n,183,2.16,2.16,2.16,23.9,77.7,1012.22,0,0,0,0,0.018311
2018/01/24 02:48:00.005,n,147,3.24,2.88,3.6,23.9,77.7,1012.22,0,0,0,0,0.022621
2018/01/24 02:49:00.001,n,157,2.52,2.16,2.88,23.9,77.8,1012.22,0,0,0,0,0.023537
2018/01/24 02:50:00.000,n,145,3.6,3.24,3.6,23.9,77.9,1012.22,0,0,0,0,0.020905
2018/01/24 02:51:00.011,n,178,3.6,3.24,4.32,23.9,77.9,1012.22,0,0,0,0,0.020027
2018/01/24 02:52:00.000,n,173,5.4,5.4,5.76,23.9,77.9,1012.22,0,0,0,0,0.020905
2018/01/24 02:53:00.000,n,157,4.32,3.96,5.04,23.9,77.8,1012.12,0,0,0,0,0.022621
2018/01/24 02:54:00.002,n,161,4.32,3.96,5.04,23.9,77.9,1012.12,0,0,0,0,0.020905
2018/01/24 02:55:00.000,n,146,4.68,3.96,5.04,23.9,78,1012.12,0,0,0,0,0.024376
2018/01/24 02:56:00.000,n,149,5.76,5.04,6.48,23.9,78.1,1012.12,0,0,0,0,0.022621
2018/01/24 02:57:00.010,n,148,5.76,5.04,6.12,23.9,78.1,1012.12,0,0,0,0,0.027847
2018/01/24 02:58:00.007,n,153,6.48,6.12,6.48,23.9,78.1,1012.12,0,0,0,0,0.020905
2018/01/24 02:59:00.005,n,173,6.12,4.32,7.2,23.9,78.1,1012.12,0,0,0,0,0.020027
2018/01/24 03:00:00.002,n,163,5.76,5.4,5.76,23.9,78.1,1012.12,0,0,0,0,0.020905
2018/01/24 03:01:00.000,n,147,6.12,5.4,6.84,23.9,78.1,1012.12,0,0,0,0,0.023537
2018/01/24 03:02:00.000,n,169,4.68,4.32,5.04,23.8,78.3,1012.22,0,0,0,0,0.028763
2018/01/24 03:03:00.000,n,127,3.6,3.24,4.68,23.8,78.3,1012.22,0,0,0,0,0.02697
2018/01/24 03:04:00.000,n,139,5.04,4.32,5.76,23.8,78.2,1012.22,0,0,0,0,0.021744
2018/01/24 03:05:00.004,n,174,3.96,1.8,5.4,23.8,78.3,1012.22,0,0,0,0,0.016556
2018/01/24 03:06:00.002,n,172,4.68,4.32,5.04,23.8,78.3,1012.22,0,0,0,0,0.028763
2018/01/24 03:07:00.000,n,196,4.68,4.32,5.04,23.8,78.4,1012.22,0,0,0,0,0.027847
2018/01/24 03:08:00.013,n,191,7.2,7.2,7.92,23.8,78.4,1012.22,0,0,0,0,0.021744
2018/01/24 03:09:00.009,n,178,4.68,4.68,5.4,23.8,78.4,1012.22,0,0,0,0,0.024376
2018/01/24 03:10:00.000,n,176,5.76,5.4,6.48,23.8,78.5,1012.22,0,0,0,0,0.020027
2018/01/24 03:11:00.003,n,170,5.04,3.6,5.76,23.8,78.6,1012.22,0,0,0,0,0.020905
2018/01/24 03:12:00.000,n,188,4.32,3.6,4.68,23.8,78.7,1012.22,0,0,0,0,0.020905
2018/01/24 03:13:00.000,n,171,5.04,4.68,5.76,23.8,78.7,1012.22,0,0,0,0,0.021744
2018/01/24 03:14:00.000,n,192,5.4,3.96,6.12,23.8,78.7,1012.22,0,0,0,0,0.02697
2018/01/24 03:15:00.007,n,173,5.76,5.4,6.12,23.8,78.8,1012.22,0,0,0,0,0.019188
2018/01/24 03:16:00.005,n,199,3.6,3.24,4.32,23.8,78.8,1012.12,0,0,0,0,0.026131
2018/01/24 03:17:00.001,n,200,3.6,3.24,3.96,23.7,78.8,1012.12,0,0,0,0,0.026131
2018/01/24 03:18:00.000,n,218,3.96,3.24,4.32,23.7,78.8,1012.12,0,0,0,0,0.020027
2018/01/24 03:19:00.000,n,198,3.6,3.24,3.96,23.7,78.8,1012.12,0,0,0,0,0.020905
2018/01/24 03:20:00.000,n,216,3.24,2.52,3.96,23.7,78.9,1012.12,0,0,0,0,0.02697
2018/01/24 03:21:00.000,n,169,4.32,3.96,5.04,23.7,79,1012.12,0,0,0,0,0.016556
2018/01/24 03:22:00.004,n,180,3.24,2.88,3.24,23.7,78.9,1012.12,0,0,0,0,0.021744
2018/01/24 03:23:00.002,n,176,3.96,3.6,4.32,23.7,79,1012.12,0,0,0,0,0.020027
2018/01/24 03:24:00.000,n,203,3.6,3.24,3.96,23.7,79,1012.12,0,0,0,0,0.017395
2018/01/24 03:25:00.011,n,177,5.4,5.04,6.12,23.7,79,1012.12,0,0,0,0,0.020027
2018/01/24 03:26:00.009,n,202,3.96,3.24,4.32,23.7,79.1,1012.12,0,0,0,0,0.023537
2018/01/24 03:27:00.006,n,196,5.4,5.04,6.12,23.7,79.2,1012.02,0,0,0,0,0.019188
2018/01/24 03:28:00.000,n,183,5.04,4.32,5.04,23.7,79.3,1012.02,0,0,0,0,0.022621
2018/01/24 03:29:00.000,n,188,4.68,4.32,5.04,23.7,79.3,1012.02,0,0,0,0,0.02697
2018/01/24 03:30:00.000,n,175,3.96,3.96,4.32,23.7,79.4,1012.02,0,0,0,0,0.020027
2018/01/24 03:31:00.000,n,165,2.16,1.44,3.6,23.7,79.5,1012.02,0,0,0,0,0.019188
2018/01/24 03:32:00.000,n,220,3.6,3.24,3.96,23.7,79.5,1012.02,0,0,0,0,0.019188
2018/01/24 03:33:00.006,n,220,3.24,3.24,3.6,23.7,79.5,1012.02,0,0,0,0,0.034828
2018/01/24 03:34:00.001,n,242,3.96,2.88,3.96,23.7,79.6,1012.02,0,0,0,0,0.033951
2018/01/24 03:35:00.000,n,254,3.6,2.52,3.96,23.6,79.6,1012.02,0,0,0,0,0.037422
2018/01/24 03:36:00.012,n,261,5.76,5.4,6.48,23.6,79.5,1012.02,0,0,0,0,0.034828
2018/01/24 03:37:00.000,n,274,6.84,3.6,8.64,23.6,79.9,1012.02,0,0,0,0,0.027847
2018/01/24 03:38:00.000,n,252,7.92,6.12,8.64,23.6,80,1012.02,0,0,0,0,0.030441
2018/01/24 03:39:00.003,n,255,8.28,7.92,9,23.6,79.8,1012.02,0,0,0,0,0.030441
2018/01/24 03:40:00.000,n,248,9,7.92,10.08,23.6,79.7,1012.02,0,0,0,0,0.030441
2018/01/24 03:41:00.000,n,247,5.4,5.04,6.12,23.5,79.7,1012.02,0,0,0,0,0.028725
2018/01/24 03:42:00.010,n,250,5.76,5.4,6.12,23.4,79.8,1012.02,0,0,0,0,0.034828
2018/01/24 03:43:00.007,n,266,5.76,4.68,8.28,23.4,80,1012.02,0,0,0,0,0.029602
2018/01/24 03:44:00.004,n,225,2.52,2.16,3.6,23.3,80.1,1012.02,0,0,0,0,0.033951
2018/01/24 03:45:00.002,n,241,6.12,5.76,6.84,23.3,80.2,1012.02,0,0,0,0,0.027847
2018/01/24 03:46:00.000,n,237,5.04,5.04,5.4,23.2,80.2,1012.02,0,0,0,0,0.029602
2018/01/24 03:47:00.000,n,243,5.76,4.68,6.84,23.2,80.8,1012.02,0,0,0,0,0.031319
2018/01/24 03:48:00.000,n,238,3.24,3.24,3.6,23.2,80.3,1012.02,0,0,0,0,0.027847
2018/01/24 03:49:00.000,n,236,3.6,3.24,4.32,23.2,80.5,1012.02,0,0,0,0,0.029602
2018/01/24 03:50:00.005,n,240,5.76,5.04,6.12,23.1,80.3,1012.02,0,0,0,0,0.028725
2018/01/24 03:51:00.002,n,246,6.12,5.76,7.2,23.1,80.4,1012.02,0,0,0,0,0.028725
2018/01/24 03:52:00.000,n,246,6.84,5.4,9.36,23.1,81.2,1012.02,0,0,0,0,0.02697
2018/01/24 03:53:00.012,n,254,7.56,7.2,7.56,23.1,81.1,1012.02,0,0,0,0,0.02697
2018/01/24 03:54:00.010,n,244,5.04,4.68,5.76,23.1,80.9,1012.12,0,0,0,0,0.025215
2018/01/24 03:55:00.000,n,236,7.2,6.48,7.56,23,80.9,1012.12,0,0,0,0,0.026093
2018/01/24 03:56:00.000,n,259,6.48,6.12,7.56,23,81,1012.12,0,0,0,0,0.024376
2018/01/24 03:57:00.001,n,227,4.32,3.96,4.68,23,81,1012.12,0,0,0,0,0.023499
2018/01/24 03:58:00.000,n,260,6.48,5.76,7.2,23,81.6,1012.12,0,0,0,0,0.024376
2018/01/24 03:59:00.000,n,256,5.76,5.4,6.48,22.9,81,1012.12,0,0,0,0,0.026093
2018/01/24 04:00:00.008,n,239,6.84,5.76,7.92,22.9,81.4,1012.12,0,0,0,0,0.023499
2018/01/24 04:01:00.005,n,252,4.68,2.52,7.56,22.9,82.2,1012.12,0,0,0,0,0.020866
2018/01/24 04:02:00.002,n,255,5.04,3.96,7.92,22.9,81.7,1012.22,0,0,0,0,0.029602
2018/01/24 04:03:00.000,n,262,7.56,3.24,9.36,22.9,82.1,1012.22,0,0,0,0,0.023499
2018/01/24 04:04:00.000,n,249,3.96,2.52,4.32,22.9,81.6,1012.22,0,0,0,0,0.025253
2018/01/24 04:05:00.000,n,247,3.24,2.88,3.6,22.8,81.6,1012.22,0,0,0,0,0.029602
2018/01/24 04:06:00.003,n,214,3.6,2.88,4.68,22.8,81.7,1012.32,0,0,0,0,0.033073
2018/01/24 04:07:00.001,n,235,3.96,3.24,4.32,22.8,81.7,1012.32,0,0,0,0,0.028687
2018/01/24 04:08:00.000,n,199,1.08,0.36,1.8,22.7,81.7,1012.32,0,0,0,0,0.030479
2018/01/24 04:09:00.010,n,192,2.88,2.52,3.6,22.7,81.9,1012.32,0,0,0,0,0.027847
2018/01/24 04:10:00.008,n,234,5.4,5.4,5.76,22.7,81.9,1012.32,0,0,0,0,0.031319
2018/01/24 04:11:00.004,n,244,3.24,2.16,4.32,22.7,82.1,1012.32,0,0,0,0,0.027847
2018/01/24 04:12:00.002,n,222,4.68,3.96,5.4,22.7,82.3,1012.32,0,0,0,0,0.024376
2018/01/24 04:13:00.000,n,250,5.4,4.68,6.12,22.7,82.3,1012.32,0,0,0,0,0.028687
2018/01/24 04:14:00.000,n,253,5.76,5.4,6.84,22.7,82.4,1012.32,0,0,0,0,0.02697
2018/01/24 04:15:00.000,n,248,4.68,3.96,6.12,22.7,82.1,1012.32,0,0,0,0,0.025253
2018/01/24 04:16:00.000,n,250,2.52,2.16,2.88,22.7,82.2,1012.32,0,0,0,0,0.026131
2018/01/24 04:17:00.004,n,304,1.8,0.72,3.96,22.7,82.1,1012.32,0,0,0,0,0.022621
2018/01/24 04:18:00.002,n,238,1.44,0.36,2.88,22.7,82.2,1012.32,0,0,0,0,0.025253
2018/01/24 04:19:00.000,n,198,2.16,1.8,2.88,22.6,82.3,1012.32,0,0,0,0,0.027847
2018/01/24 04:20:00.000,n,226,2.16,1.8,2.88,22.6,82.3,1012.32,0,0,0,0,0.026131
2018/01/24 04:21:00.012,n,246,3.96,3.6,4.32,22.6,82.5,1012.32,0,0,0,0,0.027847
2018/01/24 04:22:00.000,n,228,1.8,1.44,1.8,22.6,82.5,1012.32,0,0,0,0,0.02697
2018/01/24 04:23:00.000,n,247,4.32,3.96,4.68,22.6,82.5,1012.32,0,0,0,0,0.029602
2018/01/24 04:24:00.002,n,240,3.96,3.24,4.32,22.6,82.5,1012.32,0,0,0,0,0.027847
2018/01/24 04:25:00.000,n,218,2.88,2.88,3.6,22.6,82.4,1012.32,0,0,0,0,0.027809
2018/01/24 04:26:00.000,n,237,2.52,0.36,4.32,22.6,82.5,1012.32,0,0,0,0,0.038261
2018/01/24 04:27:00.009,n,258,1.44,1.08,1.8,22.6,82.5,1012.32,0,0,0,0,0.029602
2018/01/24 04:28:00.006,n,205,1.8,1.8,2.16,22.6,82.4,1012.42,0,0,0,0,0.034828
2018/01/24 04:29:00.002,n,172,1.08,1.08,1.44,22.6,82.4,1012.32,0,0,0,0,0.031319
2018/01/24 04:30:00.000,n,211,3.6,2.88,3.96,22.5,82.5,1012.32,0,0,0,0,0.028687
2018/01/24 04:31:00.000,n,191,2.88,2.52,3.24,22.5,82.6,1012.32,0,0,0,0,0.029602
2018/01/24 04:32:00.000,n,124,2.88,2.52,3.24,22.5,82.7,1012.42,0,0,0,0,0.029602
2018/01/24 04:33:00.000,n,26,0.72,0.36,1.44,22.5,82.9,1012.42,0,0,0,0,0.036545
2018/01/24 04:34:00.005,n,289,0.72,0.36,1.44,22.5,82.8,1012.42,0,0,0,0,0.031319
2018/01/24 04:35:00.003,n,220,2.16,1.8,2.16,22.5,82.7,1012.42,0,0,0,0,0.026093
2018/01/24 04:36:00.000,n,227,1.8,1.08,2.88,22.5,82.6,1012.42,0,0,0,0,0.028687
2018/01/24 04:37:00.000,n,209,3.24,2.52,3.6,22.5,82.7,1012.42,0,0,0,0,0.030441
2018/01/24 04:38:00.011,n,179,2.52,2.16,2.88,22.5,82.8,1012.42,0,0,0,0,0.028687
2018/01/24 04:39:00.008,n,263,2.88,1.44,3.24,22.5,82.8,1012.42,0,0,0,0,0.035667
2018/01/24 04:40:00.000,n,235,2.16,2.16,2.52,22.5,82.8,1012.42,0,0,0,0,0.033035
2018/01/24 04:41:00.001,n,247,2.16,1.8,2.52,22.5,82.8,1012.52,0,0,0,0,0.034828
2018/01/24 04:42:00.000,n,206,1.8,1.44,1.8,22.5,82.7,1012.52,0,0,0,0,0.037422
2018/01/24 04:43:00.000,n,274,1.44,0.36,1.8,22.5,82.8,1012.42,0,0,0,0,0.039177
2018/01/24 04:44:00.000,n,252,5.04,4.68,5.4,22.5,83.1,1012.42,0,0,0,0,0.036545
2018/01/24 04:45:00.006,n,222,3.6,3.24,4.32,22.5,83,1012.42,0,0,0,0,0.040894
2018/01/24 04:46:00.003,n,235,3.24,2.16,3.96,22.5,83,1012.42,0,0,0,0,0.048752
2018/01/24 04:47:00.000,n,240,6.48,5.4,6.84,22.4,83.1,1012.42,0,0,0,0,0.061798
2018/01/24 04:48:00.012,n,231,4.68,3.96,5.4,22.4,83.3,1012.42,0,0,0,0,0.071373
2018/01/24 04:49:00.000,n,250,3.6,2.88,3.6,22.4,83.2,1012.42,0,0,0,0,0.080948
2018/01/24 04:50:00.000,n,226,2.52,2.16,2.88,22.4,83.2,1012.42,0,0,0,0,0.096588
2018/01/24 04:51:00.003,n,235,4.68,4.32,4.68,22.4,83.2,1012.42,0,0,0,0,0.119209
2018/01/24 04:52:00.000,n,239,2.16,1.44,3.24,22.4,83.2,1012.52,0,0,0,0,0.146179
2018/01/24 04:53:00.000,n,236,4.68,3.96,5.76,22.4,83.3,1012.52,0,0,0,0,0.183525
2018/01/24 04:54:00.010,n,248,3.96,3.96,4.32,22.3,83.3,1012.52,0,0,0,0,0.232201
2018/01/24 04:55:00.008,n,257,7.56,5.76,9.36,22.3,83.6,1012.52,0,0,0,0,0.287857
2018/01/24 04:56:00.006,n,241,3.6,3.24,3.96,22.3,83.5,1012.52,0,0,0,0,0.357323
2018/01/24 04:57:00.004,n,247,5.04,5.04,5.4,22.3,83.5,1012.52,0,0,0,0,0.434608